Wahpeton, ND

6:15 PM CDT on July 24, 2016 (GMT -0500)
Stern

Weather History for KBWP - January, 2013

Change the Weather History Date:

Wednesday, January 9, 2013

  Actual Average (KFFM) Record (KFFM)
Temperature  
Mean Temperature 26 °F -  
Max Temperature 32 °F 13 °F 51 °F (2012)
Min Temperature 21 °F -4 °F -34 °F (1977)
Degree Days  
Heating Degree Days 38    
Moisture  
Dew Point 20 °F    
Average Humidity 76    
Maximum Humidity 86    
Minimum Humidity 69    
Precipitation  
Precipitation 0.00 in - - ()
Sea Level Pressure  
Sea Level Pressure 30.12 in    
Wind  
Wind Speed 15 mph (SW)    
Max Wind Speed 22 mph    
Max Gust Speed 25 mph    
Visibility 10 miles    
Events      
Averages and records for this station are not official NWS values.
T = Trace of Precipitation, MM = Missing Value Source: NWS Daily Summary

Daily Weather History Graph

Daily Weather History Graph

Search for Another Location

Airport or City:

Trip Planner

Search our weather history database for the weather conditions in past years. The results will help you decide how hot, cold, wet, or windy it might be!

Date:

Astronomy

Jan. 09, 2013 Rise Set
Actual Time 8:07 AM CST 4:59 PM CST
Civil Twilight 7:33 AM CST 5:33 PM CST
Nautical Twilight 6:56 AM CST 6:11 PM CST
Astronomical Twilight 6:20 AM CST 6:47 PM CST
Moon 5:48 AM CST (1/9) 3:02 PM CST (1/9)
Length of Visible Light 10h 00m
Length of Day
8h 51m
Waning Crescent, 6% of the Moon is Illuminated
Jan 9
Waning Crescent
Jan 11
New
Jan 18
First Quarter
Jan 26
Full
Feb 3
Last Quarter

Hourly Weather History & Observations

Time (CST) Temp. Windchill Dew Point Humidity Pressure Visibility Wind Dir Wind Speed Gust Speed Precip Events Conditions
12:15 AM 32.0 °F 19.8 °F 26.6 °F 80% 29.84 in 10.0 mi West 20.7 mph - N/A   Scattered Clouds
12:35 AM 32.0 °F 19.5 °F 24.8 °F 75% 29.85 in 10.0 mi West 21.9 mph - N/A   Clear
12:55 AM 32.0 °F 20.1 °F 24.8 °F 75% 29.85 in 10.0 mi West 19.6 mph - N/A   Clear
1:55 AM 32.0 °F 19.5 °F 24.8 °F 75% 29.89 in 10.0 mi WNW 21.9 mph - N/A   Mostly Cloudy
2:15 AM 32.0 °F 20.1 °F 23.0 °F 69% 29.91 in 10.0 mi WNW 19.6 mph - N/A   Mostly Cloudy
2:35 AM 28.4 °F 18.0 °F 23.0 °F 80% 29.93 in 10.0 mi WNW 12.7 mph - N/A   Clear
2:55 AM 30.2 °F 17.8 °F 23.0 °F 75% 29.95 in 10.0 mi WNW 19.6 mph - N/A   Clear
3:15 AM 28.4 °F 15.8 °F 21.2 °F 74% 29.95 in 10.0 mi West 18.4 mph 25.3 mph N/A   Clear
3:35 AM 28.4 °F 15.4 °F 21.2 °F 74% 29.97 in 10.0 mi WNW 19.6 mph - N/A   Clear
3:55 AM 28.4 °F 16.6 °F 19.4 °F 69% 29.99 in 10.0 mi West 16.1 mph - N/A   Clear
4:15 AM 26.6 °F 15.7 °F 19.4 °F 74% 30.00 in 10.0 mi West 12.7 mph - N/A   Clear
4:55 AM 26.6 °F 12.4 °F 19.4 °F 74% 30.02 in 10.0 mi WNW 21.9 mph - N/A   Clear
5:15 AM 26.6 °F 15.7 °F 19.4 °F 74% 30.04 in 10.0 mi WNW 12.7 mph - N/A   Clear
5:35 AM 26.6 °F 14.7 °F 19.4 °F 74% 30.05 in 10.0 mi WNW 15.0 mph - N/A   Clear
5:55 AM 26.6 °F 13.8 °F 19.4 °F 74% 30.06 in 10.0 mi WNW 17.3 mph - N/A   Clear
6:15 AM 24.8 °F 12.9 °F 17.6 °F 74% 30.07 in 10.0 mi WNW 13.8 mph - N/A   Clear
6:35 AM 24.8 °F 11.5 °F 17.6 °F 74% 30.08 in 10.0 mi WNW 17.3 mph - N/A   Clear
6:55 AM 23.0 °F 10.6 °F 17.6 °F 80% 30.10 in 10.0 mi WNW 13.8 mph - N/A   Clear
7:15 AM 23.0 °F 10.6 °F 17.6 °F 80% 30.11 in 10.0 mi WNW 13.8 mph - N/A   Clear
7:35 AM 23.0 °F 10.1 °F 17.6 °F 80% 30.12 in 10.0 mi WNW 15.0 mph - N/A   Clear
7:55 AM 23.0 °F 11.1 °F 17.6 °F 80% 30.14 in 10.0 mi NW 12.7 mph - N/A   Clear
8:15 AM 21.2 °F 11.7 °F 15.8 °F 80% 30.15 in 10.0 mi NW 8.1 mph - N/A   Clear
8:35 AM 21.2 °F 10.1 °F 14.0 °F 74% 30.16 in 10.0 mi WNW 10.4 mph - N/A   Clear
9:15 AM 21.2 °F 10.9 °F 15.8 °F 80% 30.17 in 10.0 mi WNW 9.2 mph - N/A   Clear
9:35 AM 21.2 °F 13.6 °F 15.8 °F 80% 30.17 in 10.0 mi NW 5.8 mph - N/A   Clear
9:55 AM 23.0 °F 14.7 °F 15.8 °F 74% 30.18 in 10.0 mi NW 6.9 mph - N/A   Clear
10:15 AM 23.0 °F 14.7 °F 17.6 °F 80% 30.19 in 10.0 mi NW 6.9 mph - N/A   Clear
10:35 AM 23.0 °F 14.7 °F 17.6 °F 80% 30.19 in 10.0 mi WNW 6.9 mph - N/A   Clear
10:55 AM 24.8 °F 16.1 °F 17.6 °F 74% 30.19 in 10.0 mi NW 8.1 mph - N/A   Clear
11:15 AM 24.8 °F 17.9 °F 17.6 °F 74% 30.20 in 10.0 mi NW 5.8 mph - N/A   Clear
11:35 AM 26.6 °F 19.1 °F 17.6 °F 69% 30.19 in 10.0 mi NW 6.9 mph - N/A   Clear
11:55 AM 26.6 °F 17.5 °F 19.4 °F 74% 30.22 in 10.0 mi NW 9.2 mph - N/A   Clear
12:15 PM 26.6 °F 19.1 °F 19.4 °F 74% 30.22 in 10.0 mi NNW 6.9 mph - N/A   Clear
12:35 PM 26.6 °F 21.2 °F 19.4 °F 74% 30.23 in 10.0 mi SW 4.6 mph - N/A   Clear
12:55 PM 26.6 °F 20.0 °F 19.4 °F 74% 30.23 in 10.0 mi SSW 5.8 mph - N/A   Clear
1:15 PM 26.6 °F 20.0 °F 19.4 °F 74% 30.23 in 10.0 mi South 5.8 mph - N/A   Clear
1:35 PM 28.4 °F 21.2 °F 19.4 °F 69% 30.23 in 10.0 mi South 6.9 mph - N/A   Clear
1:55 PM 28.4 °F 21.2 °F 19.4 °F 69% 30.24 in 10.0 mi SSW 6.9 mph - N/A   Clear
2:15 PM 28.4 °F 19.1 °F 19.4 °F 69% 30.26 in 10.0 mi SSW 10.4 mph - N/A   Mostly Cloudy
2:35 PM 28.4 °F 19.7 °F 21.2 °F 74% 30.24 in 10.0 mi South 9.2 mph - N/A   Overcast
2:55 PM 28.4 °F 21.2 °F 19.4 °F 69% 30.25 in 10.0 mi South 6.9 mph - N/A   Mostly Cloudy
3:15 PM 28.4 °F 20.4 °F 21.2 °F 74% 30.25 in 10.0 mi SE 8.1 mph - N/A   Scattered Clouds
3:35 PM 28.4 °F 20.4 °F 21.2 °F 74% 30.26 in 10.0 mi SE 8.1 mph - N/A   Clear
3:55 PM 28.4 °F 19.7 °F 21.2 °F 74% 30.25 in 10.0 mi SE 9.2 mph - N/A   Clear
4:15 PM 28.4 °F 19.1 °F 21.2 °F 74% 30.24 in 10.0 mi SSE 10.4 mph - N/A   Clear
4:35 PM 28.4 °F 19.1 °F 21.2 °F 74% 30.23 in 10.0 mi SE 10.4 mph - N/A   Clear
4:55 PM 28.4 °F 18.5 °F 21.2 °F 74% 30.21 in 10.0 mi SE 11.5 mph - N/A   Clear
5:15 PM 26.6 °F 16.2 °F 21.2 °F 80% 30.20 in 10.0 mi SE 11.5 mph - N/A   Clear
5:35 PM 26.6 °F 15.7 °F 19.4 °F 74% 30.19 in 10.0 mi SSE 12.7 mph - N/A   Clear
5:55 PM 24.8 °F 13.4 °F 19.4 °F 80% 30.18 in 10.0 mi SE 12.7 mph - N/A   Clear
6:15 PM 24.8 °F 14.0 °F 19.4 °F 80% 30.18 in 10.0 mi SE 11.5 mph - N/A   Clear
6:35 PM 24.8 °F 12.4 °F 19.4 °F 80% 30.17 in 10.0 mi SSE 15.0 mph - N/A   Clear
6:55 PM 24.8 °F 12.4 °F 19.4 °F 80% 30.16 in 10.0 mi SSE 15.0 mph - N/A   Clear
7:15 PM 23.0 °F 10.1 °F 19.4 °F 86% 30.15 in 10.0 mi SSE 15.0 mph - N/A   Clear
7:35 PM 23.0 °F 10.6 °F 19.4 °F 86% 30.14 in 10.0 mi SSE 13.8 mph - N/A   Clear
8:15 PM 24.8 °F 11.1 °F 19.4 °F 80% 30.12 in 10.0 mi SSE 18.4 mph - N/A   Clear
8:35 PM 24.8 °F 10.7 °F 19.4 °F 80% 30.10 in 10.0 mi SSE 19.6 mph - N/A   Clear
8:55 PM 24.8 °F 10.7 °F 19.4 °F 80% 30.09 in 10.0 mi SSE 19.6 mph - N/A   Clear
9:15 PM 24.8 °F 11.5 °F 19.4 °F 80% 30.10 in 10.0 mi SSE 17.3 mph 21.9 mph N/A   Clear
9:35 PM 26.6 °F 15.2 °F 19.4 °F 74% 30.09 in 10.0 mi SSE 13.8 mph - N/A   Clear
9:55 PM 26.6 °F 14.7 °F 21.2 °F 80% 30.08 in 10.0 mi SSE 15.0 mph - N/A   Clear
10:15 PM 26.6 °F 13.8 °F 21.2 °F 80% 30.05 in 10.0 mi SSE 17.3 mph - N/A   Clear
10:35 PM 26.6 °F 14.7 °F 21.2 °F 80% 30.05 in 10.0 mi SSE 15.0 mph - N/A   Clear
10:55 PM 26.6 °F 15.2 °F 21.2 °F 80% 30.06 in 10.0 mi SSE 13.8 mph - N/A   Clear
11:35 PM 26.6 °F 13.8 °F 21.2 °F 80% 30.05 in 10.0 mi SSE 17.3 mph - N/A   Clear
11:55 PM 26.6 °F 13.8 °F 21.2 °F 80% 30.05 in 10.0 mi SSE 17.3 mph - N/A   Clear